TimeCST,TemperatureF,Dew PointF,Humidity,Sea Level PressureIn,VisibilityMPH,Wind Direction,Wind SpeedMPH,Gust SpeedMPH,PrecipitationIn,Events,Conditions,WindDirDegrees,DateUTC
12:53 AM,37.9,19.0,47,29.99,10.0,SSW,13.8,-,N/A,,Clear,200,2012-11-25 06:53:00
1:53 AM,37.9,19.9,48,29.97,10.0,SSW,15.0,-,N/A,,Clear,200,2012-11-25 07:53:00
2:53 AM,39.0,19.9,46,29.96,10.0,SSW,16.1,-,N/A,,Clear,210,2012-11-25 08:53:00
3:53 AM,39.0,21.0,49,29.95,10.0,SSW,13.8,-,N/A,,Clear,210,2012-11-25 09:53:00
4:53 AM,37.0,21.0,52,29.94,10.0,SSW,13.8,-,N/A,,Clear,210,2012-11-25 10:53:00
5:53 AM,35.1,21.0,57,29.94,10.0,SW,12.7,-,N/A,,Clear,220,2012-11-25 11:53:00
6:53 AM,34.0,21.0,59,29.96,10.0,SW,10.4,-,N/A,,Clear,220,2012-11-25 12:53:00
7:53 AM,37.0,23.0,57,29.96,10.0,SW,9.2,-,N/A,,Clear,220,2012-11-25 13:53:00
8:53 AM,42.1,23.0,47,29.97,10.0,SW,10.4,-,N/A,,Clear,220,2012-11-25 14:53:00
9:53 AM,46.9,24.1,41,29.97,10.0,SW,11.5,-,N/A,,Clear,230,2012-11-25 15:53:00
10:53 AM,51.1,25.0,36,29.96,10.0,West,11.5,-,N/A,,Clear,260,2012-11-25 16:53:00
11:53 AM,54.0,26.1,34,29.92,10.0,West,8.1,-,N/A,,Clear,280,2012-11-25 17:53:00
12:53 PM,55.0,26.1,33,29.90,10.0,WNW,6.9,-,N/A,,Clear,290,2012-11-25 18:53:00
1:53 PM,57.0,27.0,32,29.90,10.0,NW,9.2,-,N/A,,Clear,310,2012-11-25 19:53:00
2:53 PM,55.9,27.0,33,29.89,10.0,WNW,5.8,-,N/A,,Clear,300,2012-11-25 20:53:00
3:53 PM,57.0,27.0,32,29.90,10.0,Calm,Calm,-,N/A,,Clear,0,2012-11-25 21:53:00
4:53 PM,50.0,28.9,44,29.92,10.0,North,5.8,-,N/A,,Clear,360,2012-11-25 22:53:00
5:53 PM,44.1,28.9,55,29.94,10.0,NE,3.5,-,N/A,,Clear,40,2012-11-25 23:53:00
6:53 PM,41.0,28.0,60,29.96,10.0,NNE,3.5,-,N/A,,Clear,30,2012-11-26 00:53:00
7:53 PM,43.0,28.0,56,29.97,10.0,ENE,6.9,-,N/A,,Clear,60,2012-11-26 01:53:00
8:53 PM,43.0,28.0,56,29.98,10.0,ENE,6.9,-,N/A,,Clear,70,2012-11-26 02:53:00
9:53 PM,39.9,28.0,63,30.00,10.0,ENE,8.1,-,N/A,,Clear,60,2012-11-26 03:53:00
10:53 PM,39.9,28.9,65,30.01,10.0,ENE,9.2,-,N/A,,Clear,60,2012-11-26 04:53:00
11:53 PM,39.9,28.9,65,30.01,10.0,ENE,10.4,-,N/A,,Clear,70,2012-11-26 05:53:00